Regional Weather Roundup
Issued by NWS

Home | Current Version | Previous Version | Text Only | Print | Product List | Glossary Off
Versions: 1 2 3 4 5 6 7 8 9 10 11 12 13 14 15 16 17 18 19 20 21 22 23 24 25 26 27 28 29 30 31 32 33 34 35 36 37 38 39 40 41 42 43 44 45 46 47 48 49 50

000
ASUS43 KMPX 120010
RWRMN
WEATHER ROUNDUP FOR MINNESOTA
NATIONAL WEATHER SERVICE TWIN CITIES/CHANHASSEN MN
600 PM CST MON DEC 11 2017


NOTE: "FAIR" INDICATES FEW OR NO CLOUDS BELOW 12,000 FEET WITH NO
SIGNIFICANT WEATHER AND/OR OBSTRUCTIONS TO VISIBILITY. N/A MEANS
CURRENT SKY AND/OR WEATHER CONDITIONS ARE NOT AVAILABLE.

MNZ060>063-068>070-120100-
   Twin Cities Metro

CITY           SKY/WX    TMP DP  RH WIND       PRES   REMARKS
TWIN CITIES    MOCLDY    27  18  69 N20G26    30.08R WCI  13
6HR MIN TEMP:  27; 6HR MAX TEMP:  35;

ST PAUL        CLOUDY    26  16  65 N20G31    30.09R WCI  12
CRYSTAL        MOCLDY    26  14  60 NW16G25   30.08R WCI  14
BLAINE         MOCLDY    27  18  69 N17G32    30.07R WCI  14
LAKEVILLE      CLOUDY    27  18  69 NW23      30.06R WCI  12
EDEN PRAIRIE   PTCLDY    26  15  63 N24G35    30.07R WCI  11
6HR MIN TEMP:  26; 6HR MAX TEMP:  36;

SOUTH ST PAUL  CLOUDY    28  17  63 N17G25    30.07R WCI  15
LAKE ELMO      CLOUDY    27  18  69 NW15G21   30.07R WCI  15
$$
MNZ001>005-007-008-013>017-022>024-027-028-120100-
   Northwest Minnesota

CITY           SKY/WX    TMP DP  RH WIND       PRES   REMARKS
BEMIDJI        FLURRIES   9   5  82 NW12      30.20R WCI  -6
HALLOCK        CLOUDY    10   7  85 N10       30.33S WCI  -3
ROSEAU         CLOUDY     7   1  78 W8        30.27R WCI  -6
WARROAD        CLEAR      7   1  78 W12       30.25R WCI  -9
THIEF RVR FALL CLEAR      7   3  84 NW17      30.30R WCI -12
CROOKSTON      PTCLDY     9   5  85 N14       30.34R WCI  -8
FOSSTON        FLURRIES   7   1  78 NW13G21   30.27R WCI  -9
DETROIT LAKES  LGT SNOW  10   9  92 NW15      30.25R WCI  -6
MOORHEAD       CLEAR     12   7  79 N17       30.33R WCI  -5
PARK RAPIDS    MOCLDY    11   6  81 NW12      30.18R WCI  -3
MAHNOMEN       FAIR       8   3  82 NW15G21   30.27R WCI -10
$$
MNZ006-009>011-018-025>026-120100-
   North Central Minnesota

CITY           SKY/WX    TMP DP  RH WIND       PRES   REMARKS
BAUDETTE       CLEAR      8   3  80 NW18      30.19R WCI -11
FLAG ISLAND    CLEAR      7   1  78 NW16      30.22R WCI -11
INTL FALLS     CLEAR     11   3  70 NW16      30.14R WCI  -6
6HR MIN TEMP:  11; 6HR MAX TEMP:  19; 6HR PCP: TRACE;

WASKISH        CLOUDY    12   7  79 NW14G22   30.20R WCI  -3
LONGVILLE      PTCLDY    16   9  73 NW8       30.14R WCI   5
GRAND RAPIDS   FLURRIES  14   8  77 NW17      30.13R WCI  -3
CRANE LAKE     CLOUDY    10   5  79 N8        30.12R WCI  -1
ORR            CLOUDY    12   3  67 NW13G22   30.07R WCI  -3
COOK           MOCLDY    12   7  79 NW9G21    30.09R WCI   0
WALKER         FLURRIES  12   7  79 NW17      30.17R WCI  -5
$$
MNZ012-019>021-037-120100-
   Northeast Minnesota

CITY           SKY/WX    TMP DP  RH WIND       PRES   REMARKS
DULUTH         MOCLDY    15   8  73 NW13G23   30.02R WCI   1
6HR MIN TEMP:  15; 6HR MAX TEMP:  25;

ELY            CLOUDY    10   3  72 NW13G20   30.04R WCI  -5
HIBBING        MOCLDY    14   7  73 NW25G37   30.07R WCI  -5
EVELETH        PTCLDY    15   5  64 NW20G26   30.06R WCI  -2
DULUTH HARBOR  PTCLDY    21  12  68 NW13G22   30.10R WCI   9
TWO HARBORS    PTCLDY    18   9  68 NW6       30.01R WCI   9
SILVER BAY     CLEAR     16   7  67 NW8       29.99R WCI   5
GRAND MARAIS     N/A     14   3  61 N10G26    30.00R WCI   1
G MARAIS ARPRT MOCLDY     7   0  72 NW14G31   29.89R WCI -10
$$
MNZ029>031-032-039>041-046>048-054>057-064-120100-
   West Central Minnesota

CITY           SKY/WX    TMP DP  RH WIND       PRES   REMARKS
FERGUS FALLS   MOCLDY    10   7  85 N16       30.31R WCI  -7
WHEATON        PTCLDY    18  10  73 NW17      30.32R WCI   2
MORRIS         PTCLDY    16  10  79 NW21      30.24R WCI  -2
ALEXANDRIA     PTCLDY    14   9  80 NW16G25   30.20R WCI  -2
ELBOW LAKE     FAIR      13   9  86 NW20G26   30.26R WCI  -5
WADENA         FLURRIES  12   7  79 NW9       30.19R WCI   0
GLENWOOD       CLEAR     16  10  79 NW15      30.20R WCI   1
APPLETON       CLEAR     19  12  73 N20G30    30.27R WCI   4
BENSON         PTCLDY    16  10  79 N20G25    30.26R WCI  -1
ORTONVILLE     CLEAR     19  12  73 N18G26    30.27R WCI   4
MADISON        CLEAR     23  16  74 N18G24    30.27R WCI   9
WILLMAR        MOCLDY    21  16  79 NW18      30.20R WCI   6
$$
MNZ033>034-036-042>043-049>051-058-059-120100-
   Central Minnesota

CITY           SKY/WX    TMP DP  RH WIND       PRES   REMARKS
ST CLOUD       CLEAR     22  12  65 N12G23    30.12R WCI  10
6HR MIN TEMP:  22; 6HR MAX TEMP:  34;

SAUK CENTRE    FAIR      17  12  78 NW22G28   30.18R WCI   0
PAYNESVILLE    PTCLDY    20  15  82 NW15      30.17R WCI   6
AITKIN         CLEAR     16   7  67 NW8       30.11R WCI   5
PINE RIVER     CLEAR     16   9  73 NW7       30.17R WCI   6
BRAINERD       CLEAR     19   8  62 N15       30.14R WCI   5
STAPLES        CLEAR     16   9  73 NW15G24   30.17R WCI   1
LONG PRAIRIE   FAIR      18  12  79 W18       30.17R WCI   2
LITTLE FALLS   CLEAR     21   9  58 NW10G16   30.15R WCI  10
LITCHFIELD     CLEAR     23  18  80 NW15G22   30.14R WCI  10
BUFFALO        CLEAR     24  14  65 NW10G23   30.13R WCI  14
MAPLE LAKE     PTCLDY    25  17  73 N13       30.13R WCI  13
HUTCHINSON     CLOUDY    25  19  77 NW15G26   30.14R WCI  12
$$
MNZ037-044-045-052-053-120100-
   East Central Minnesota

CITY           SKY/WX    TMP DP  RH WIND       PRES   REMARKS
PRINCETON      CLEAR     23  12  63 NW15G23   30.11R WCI  10
MORA           PTCLDY    21  12  68 NW14G21   30.12R WCI   8
CAMBRIDGE      CLEAR     25  12  58 NW9G23    30.10R WCI  15
RUSH CITY      CLEAR     21  12  67 NW14      30.09R WCI   8
MOOSE LAKE     MOCLDY    19  10  68 N7        30.07R WCI  10
HINCKLEY       MOCLDY    21  14  73 NW13      30.09R WCI   9
CLOQUET        PTCLDY    18   9  68 NW13      30.05R WCI   4
MCGREGOR       CLEAR     19  10  68 NW16G23   30.10R WCI   5
$$
MNZ071>073-080-081-089-090-097-098-120100-
   Southwest Minnesota

CITY           SKY/WX    TMP DP  RH WIND       PRES   REMARKS
MONTEVIDEO     CLEAR     18  12  79 N22G29    30.24R WCI   0
GRANITE FALLS  CLEAR     21  15  77 NW22G29   30.24R WCI   4
CANBY          CLEAR     22  16  77 W16G24    30.26R WCI   9
MARSHALL       CLEAR     20  14  77 N24G31    30.22R WCI   3
REDWOOD FALLS  CLOUDY    22  13  68 NW21G33   30.18R WCI   6
OLIVIA         PTCLDY    23  18  80 NW18G28   30.17R WCI   9
PIPESTONE      CLEAR     21  18  86 N18G28    30.20R WCI   6
WINDOM           N/A     23  10  58 NW26G32   30.14R WCI   6
WORTHINGTON    MOCLDY    22  17  81 N18G25    30.17R WCI   7
JACKSON        CLOUDY    23  18  80 MISG      30.13R
TRACY          MOCLDY    22  16  79 NW22G33   30.20R WCI   6
SLAYTON        PTCLDY    21  16  79 NW22G36   30.19R WCI   5
$$
MNZ065>067-074>077-082>085-091>093-120100-
   South Central Minnesota

CITY           SKY/WX    TMP DP  RH WIND       PRES   REMARKS
MANKATO        CLOUDY    28  21  75 NW18G33   30.09R WCI  15
NEW ULM        CLOUDY    25  16  68 NW24G32   30.13R WCI   9
ST JAMES       CLOUDY    25  19  80 NW22G31   30.14R WCI  10
FAIRMONT       CLOUDY    25  19  78 NW31G40   30.10R WCI   8
GLENCOE        PTCLDY    28  20  73 NW17G23   30.11R WCI  15
FARIBAULT      MOCLDY    27  19  74 NW20G25   30.06R WCI  13
OWATONNA       CLOUDY    28  21  74 NW22G28   30.04R WCI  15
WASECA         CLOUDY    32  27  80 NW24      30.07R WCI  19
ALBERT LEA     CLOUDY    30  23  74 N20G25    30.01R WCI  18
$$
MNZ078>079-086>088-094>096-120100-
   Southeast Minnesota

CITY           SKY/WX    TMP DP  RH WIND       PRES   REMARKS
ROCHESTER      CLOUDY    30  23  75 N25G33    29.97R WCI  16
6HR MIN TEMP:  30; 6HR MAX TEMP:  34; 6HR PCP: TRACE;

RED WING       CLOUDY    28  16  59 N14G28    30.03R WCI  17
STANTON        CLOUDY    29  20  69 N18G25    30.03R WCI  17
DODGE CENTER   CLOUDY    28  21  74 N20G29    30.00R WCI  15
WINONA         CLOUDY    34  27  75 NW16G23   29.97R WCI  23
AUSTIN         CLOUDY    30  25  80 N23G32    29.99R WCI  17
PRESTON        CLOUDY    30  24  77 N15G23    29.94R WCI  19
$$
ABBREVIATIONS USED IN REMARKS
   TC - TEMPERATURES IN CELSIUS
  WCI - WIND CHILL INDEX
   HX - HEAT INDEX
  VSB - VISIBILITY
$$




USA.gov is the U.S. government's official web portal to all federal, state and local government web resources and services.